Iron Mountain, MI

7:26 AM CST on February 22, 2018 (GMT -0600)
Ford

Weather History for KIMT - November, 2012

Change the Weather History Date:

Sunday, November 11, 2012

  Actual Average Record
Temperature  
Mean Temperature 50 °F -  
Max Temperature 60 °F 39 °F 64 °F (1964)
Min Temperature 37 °F 25 °F 2 °F (1979)
Degree Days  
Heating Degree Days 16    
Moisture  
Dew Point 49 °F    
Average Humidity 92    
Maximum Humidity 100    
Minimum Humidity 75    
Precipitation  
Precipitation 0.59 in - - ()
Sea Level Pressure  
Sea Level Pressure 29.66 in    
Wind  
Wind Speed 8 mph (South)    
Max Wind Speed 15 mph    
Max Gust Speed 24 mph    
Visibility 5 miles    
Events Fog , Rain , Thunderstorm    
Averages and records for this station are not official NWS values.
T = Trace of Precipitation, MM = Missing Value Source: NWS Daily Summary

Daily Weather History Graph

Daily Weather History Graph

Search for Another Location

Airport or City:

Trip Planner

Search our weather history database for the weather conditions in past years. The results will help you decide how hot, cold, wet, or windy it might be!

Date:

Astronomy

Nov. 11, 2012 Rise Set
Actual Time 6:47 AM CST 4:25 PM CST
Civil Twilight 6:15 AM CST 4:57 PM CST
Nautical Twilight 5:39 AM CST 5:32 PM CST
Astronomical Twilight 5:04 AM CST 6:07 PM CST
Moon 3:54 AM CST (11/11) 2:53 PM CST (11/11)
Length of Visible Light 10h 41m
Length of Day
9h 37m
Waning Crescent, 7% of the Moon is Illuminated
Nov 11
Waning Crescent
Nov 13
New
Nov 20
First Quarter
Nov 28
Full
Dec 6
Last Quarter

Hourly Weather History & Observations

Time (CST) Temp. Windchill Dew Point Humidity Pressure Visibility Wind Dir Wind Speed Gust Speed Precip Events Conditions
12:13 AM 46.4 °F 43.5 °F 46.4 °F 100% 29.71 in 0.2 mi SE 5.8 mph - N/A Fog Fog
12:52 AM 46.4 °F 44.3 °F 46.4 °F 100% 29.71 in 0.5 mi SSE 4.6 mph - 0.00 in Fog Fog
12:54 AM 46.9 °F - 46.9 °F 100% 29.74 in 0.5 mi SSE 5.8 mph - 0.00 in Fog Fog
1:04 AM 48.2 °F - 46.4 °F 93% 29.71 in 0.2 mi SE 6.9 mph - 0.00 in Fog , Rain Light Rain
1:11 AM 48.2 °F - 46.4 °F 93% 29.72 in 0.5 mi SE 6.9 mph - 0.00 in Fog , Rain Light Rain
1:22 AM 48.2 °F - 48.2 °F 100% 29.71 in 0.8 mi SE 6.9 mph - 0.00 in Rain , Thunderstorm Light Thunderstorms and Rain
1:31 AM 48.2 °F - 48.2 °F 100% 29.72 in 1.0 mi SE 8.1 mph - 0.00 in Rain Light Rain
1:46 AM 48.2 °F - 48.2 °F 100% 29.73 in 2.5 mi SSE 6.9 mph - 0.00 in Rain Light Rain
1:54 AM 48.9 °F - 48.0 °F 97% 29.74 in 2.5 mi SE 10.4 mph - 0.01 in Rain Light Rain
2:04 AM 48.2 °F - 48.2 °F 100% 29.72 in 3.0 mi SE 8.1 mph - 0.01 in Rain Rain
2:54 AM 50.0 °F - 48.9 °F 96% 29.74 in 4.0 mi SSE 9.2 mph - 0.01 in Rain Light Rain
3:54 AM 52.0 °F - 50.0 °F 93% 29.73 in 9.0 mi SSE 10.4 mph - 0.00 in   Overcast
4:54 AM 53.1 °F - 50.0 °F 89% 29.74 in 10.0 mi South 11.5 mph - 0.00 in   Overcast
5:54 AM 54.0 °F - 51.1 °F 90% 29.72 in 10.0 mi South 10.4 mph - N/A   Mostly Cloudy
6:54 AM 54.0 °F - 51.1 °F 90% 29.70 in 10.0 mi SSE 13.8 mph - N/A   Partly Cloudy
8:54 AM 55.9 °F - 52.0 °F 87% 29.69 in 10.0 mi SSE 12.7 mph 18.4 mph N/A   Partly Cloudy
10:04 AM 57.2 °F - 51.8 °F 82% 29.69 in 10.0 mi South 12.7 mph 23.0 mph N/A   Mostly Cloudy
10:54 AM 60.1 °F - 52.0 °F 75% 29.69 in 10.0 mi South 10.4 mph 20.7 mph N/A   Overcast
11:54 AM 59.0 °F - 52.0 °F 78% 29.63 in 10.0 mi SSE 9.2 mph - N/A   Overcast
12:42 PM 57.2 °F - 53.6 °F 88% 29.62 in 1.8 mi South 11.5 mph 19.6 mph 0.10 in Rain Heavy Rain
12:52 PM 55.4 °F - 53.6 °F 94% 29.63 in 3.0 mi South 11.5 mph - 0.11 in Rain Light Rain
12:54 PM 55.9 °F - 53.1 °F 90% 29.65 in 4.0 mi South 10.4 mph - 0.11 in Rain Light Rain
1:02 PM 55.4 °F - 53.6 °F 94% 29.65 in 1.8 mi South 9.2 mph - 0.05 in Rain Heavy Rain
1:14 PM 55.4 °F - 53.6 °F 94% 29.62 in 2.5 mi South 8.1 mph - 0.08 in Rain Rain
1:21 PM 55.4 °F - 53.6 °F 94% 29.62 in 3.0 mi South 10.4 mph - 0.10 in Rain Rain
1:31 PM 55.4 °F - 53.6 °F 94% 29.61 in 6.0 mi SSE 6.9 mph - 0.10 in Rain Light Rain
1:47 PM 55.4 °F - 53.6 °F 94% 29.62 in 6.0 mi SSE 10.4 mph - 0.10 in Rain Light Rain
1:54 PM 55.9 °F - 53.1 °F 90% 29.62 in 4.0 mi SSE 8.1 mph - 0.11 in Rain Rain
2:10 PM 55.4 °F - 53.6 °F 94% 29.61 in 8.0 mi SSE 9.2 mph - 0.00 in Rain Light Rain
2:20 PM 55.4 °F - 53.6 °F 94% 29.60 in 7.0 mi South 6.9 mph - 0.00 in Rain Light Rain
2:30 PM 55.4 °F - 53.6 °F 94% 29.60 in 2.0 mi South 8.1 mph - 0.02 in Rain Rain
2:32 PM 55.4 °F - 53.6 °F 94% 29.60 in 1.8 mi SSE 9.2 mph - 0.03 in Rain Rain
2:39 PM 55.4 °F - 53.6 °F 94% 29.59 in 3.0 mi SSE 4.6 mph - 0.03 in Rain Light Rain
2:52 PM 55.4 °F - 53.6 °F 94% 29.59 in 4.0 mi South 5.8 mph - 0.03 in Rain Light Rain
2:54 PM 55.0 °F - 54.0 °F 96% 29.60 in 4.0 mi South 4.6 mph - 0.03 in Rain Light Rain
3:51 PM 55.4 °F - 53.6 °F 94% 29.59 in 2.5 mi SSE 8.1 mph - 0.07 in Rain Rain
3:54 PM 55.0 °F - 54.0 °F 96% 29.60 in 2.5 mi South 6.9 mph - 0.08 in Rain Rain
4:08 PM 55.4 °F - 53.6 °F 94% 29.59 in 1.0 mi Variable 5.8 mph - 0.13 in Rain Heavy Rain
4:24 PM 53.6 °F - 50.0 °F 88% 29.61 in 3.0 mi West 8.1 mph - 0.19 in Rain Rain
4:31 PM 53.6 °F - 50.0 °F 88% 29.60 in 7.0 mi West 3.5 mph - 0.19 in Rain Light Rain
4:54 PM 53.1 °F - 50.0 °F 89% 29.62 in 10.0 mi Calm Calm - 0.19 in Rain Light Rain
5:54 PM 51.1 °F - 48.9 °F 92% 29.61 in 6.0 mi Calm Calm - 0.02 in Rain Light Rain
6:54 PM 50.0 °F - 48.9 °F 96% 29.62 in 7.0 mi SSE 5.8 mph - 0.01 in Rain Light Rain
7:54 PM 50.0 °F - 48.0 °F 93% 29.61 in 10.0 mi South 6.9 mph - 0.00 in Rain Light Rain
8:17 PM 50.0 °F - 46.4 °F 87% 29.62 in 10.0 mi SW 8.1 mph - 0.00 in Rain Light Rain
8:30 PM 50.0 °F - 46.4 °F 87% 29.63 in 5.0 mi SW 9.2 mph - 0.02 in Rain Rain
8:54 PM 48.9 °F - 45.0 °F 86% 29.64 in 10.0 mi SW 11.5 mph - 0.02 in Rain Light Rain
9:12 PM 48.2 °F - 44.6 °F 87% 29.65 in 10.0 mi West 13.8 mph 23.0 mph 0.00 in   Overcast
9:23 PM 42.8 °F 35.4 °F 39.2 °F 87% 29.65 in 4.0 mi West 15.0 mph 24.2 mph 0.00 in Rain Light Rain
9:31 PM 42.8 °F 37.0 °F 39.2 °F 87% 29.66 in 6.0 mi West 10.4 mph 23.0 mph 0.00 in Rain Light Rain
9:54 PM 41.0 °F 35.8 °F 37.9 °F 89% 29.69 in 10.0 mi West 8.1 mph - 0.00 in Rain Light Rain
10:21 PM 41.0 °F 33.9 °F 37.4 °F 87% 29.68 in 10.0 mi West 12.7 mph 18.4 mph 0.00 in   Overcast
10:54 PM 39.9 °F 32.5 °F 36.0 °F 86% 29.71 in 10.0 mi West 12.7 mph 19.6 mph 0.00 in   Overcast
11:54 PM 37.0 °F 28.9 °F 34.0 °F 89% 29.73 in 10.0 mi West 12.7 mph 17.3 mph N/A   Overcast